CW7731 Weather Reports


time (UTC)temp
F
wind
direction
speed
knots
gust
knots
rain 1hr
in
rain 24hr
in
rain mn
in
humidity
%
barometer
mb
20260507175139 66 319 0.0 0.0 0.00 0.00 0.00 62 1011.1
20260507174131 67 324 0.0 0.0 0.00 0.00 0.00 61 1010.9
20260507165114 69 337 0.0 4.3 0.00 0.00 0.00 56 1010.5
20260507164128 70 288 0.0 0.9 0.00 0.00 0.00 55 1010.6
20260507163102 70 302 0.0 0.9 0.00 0.00 0.00 54 1010.5
20260507162115 69 297 0.0 0.0 0.00 0.00 0.00 56 1010.6
20260507161136 69 297 0.0 0.0 0.00 0.00 0.00 57 1010.5
20260507160133 69 298 0.0 0.0 0.00 0.00 0.00 57 1010.5
20260507155124 69 287 0.0 0.0 0.00 0.00 0.00 57 1010.4
20260507154119 70 286 0.0 0.0 0.00 0.00 0.00 56 1010.4
20260507153122 70 295 0.0 1.7 0.00 0.00 0.00 54 1010.4
20260507152110 70 295 0.0 6.1 0.00 0.00 0.00 56 1010.5
20260507151138 70 309 0.0 4.3 0.00 0.00 0.00 55 1010.5
20260507150128 71 310 0.0 7.0 0.00 0.00 0.00 49 1010.4
20260507145105 71 265 0.0 7.8 0.00 0.00 0.00 50 1010.4
20260507144142 70 312 0.0 0.9 0.00 0.00 0.00 50 1010.4
20260507143137 69 11 0.0 7.8 0.00 0.00 0.00 52 1010.4
20260507142107 70 3 1.7 7.0 0.00 0.00 0.00 51 1010.5
20260507141121 70 30 1.7 6.1 0.00 0.00 0.00 51 1010.6
20260507140122 68 2 0.0 5.2 0.00 0.00 0.00 52 1010.6
20260507135126 68 50 0.0 6.1 0.00 0.00 0.00 51 1010.5
20260507134138 68 15 0.9 7.0 0.00 0.00 0.00 53 1010.7
20260507133102 68 32 0.9 5.2 0.00 0.00 0.00 55 1010.8
20260507132109 68 81 0.0 9.6 0.00 0.00 0.00 60 1010.8
20260507131138 68 26 0.0 15.6 0.00 0.00 0.00 64 1010.8
20260507130131 70 15 7.0 13.0 0.00 0.00 0.00 60 1010.6
20260507125108 70 9 0.0 7.0 0.00 0.01 0.00 59 1010.5
20260507124110 72 289 2.6 9.6 0.00 0.02 0.00 55 1010.4
20260507123146 72 209 1.7 13.9 0.00 0.03 0.00 50 1010.3
20260507122134 72 203 2.6 11.3 0.00 0.03 0.00 50 1010.3
20260507121140 71 206 1.7 12.2 0.00 0.03 0.00 53 1010.4
20260507120141 71 216 0.9 11.3 0.00 0.04 0.00 53 1010.3
20260507115143 71 203 3.5 13.0 0.00 0.06 0.00 52 1010.3
20260507114123 71 189 3.5 10.4 0.00 0.08 0.00 54 1010.4
20260507105101 69 192 0.0 9.6 0.00 0.10 0.00 62 1010.8
20260507104120 68 172 0.9 8.7 0.00 0.12 0.00 63 1010.8
20260507103141 68 125 0.9 10.4 0.00 0.12 0.00 64 1011.1
20260507102136 68 165 0.9 4.3 0.00 0.12 0.00 62 1011.1
20260507101145 68 167 0.0 5.2 0.00 0.12 0.00 60 1011.2
20260507100104 68 176 0.0 3.5 0.00 0.12 0.00 61 1011.3
20260507095130 69 187 0.0 0.9 0.00 0.12 0.00 59 1011.4
20260507094108 67 187 0.0 0.0 0.00 0.12 0.00 61 1011.3
20260507093122 67 185 0.0 0.9 0.00 0.12 0.00 62 1011.3
20260507092137 67 175 0.0 0.9 0.00 0.12 0.00 63 1011.2
20260507091129 66 167 0.0 0.9 0.00 0.12 0.00 65 1011.2
20260507085135 66 165 0.0 3.5 0.00 0.12 0.00 66 1011.2
20260507084133 64 167 0.0 1.7 0.00 0.12 0.00 67 1011.2
20260507081112 64 319 0.0 0.0 0.00 0.12 0.00 72 1011.3
20260507080146 64 320 0.0 0.0 0.00 0.12 0.00 73 1011.2
20260507075125 63 320 0.0 0.0 0.00 0.12 0.00 76 1011.2
20260507074123 62 319 0.0 0.0 0.00 0.12 0.00 78 1011.2
20260507073144 61 319 0.0 0.0 0.00 0.12 0.00 80 1011.2
20260507072130 61 319 0.0 0.0 0.00 0.12 0.00 80 1011.2
20260507071138 61 319 0.0 0.0 0.00 0.12 0.00 80 1011.1
20260507070130 61 319 0.0 0.0 0.00 0.12 0.00 81 1011.0
20260507065124 60 319 0.0 0.0 0.00 0.12 0.00 83 1010.9
20260507064117 60 319 0.0 0.0 0.00 0.12 0.00 84 1010.9
20260507063129 59 319 0.0 0.0 0.00 0.12 0.00 84 1010.9
20260507061146 58 319 0.0 0.0 0.00 0.13 0.00 86 1010.8
20260507060105 57 319 0.0 0.0 0.00 0.14 0.00 86 1010.8
20260507055145 57 319 0.0 0.0 0.00 0.20 0.00 87 1010.7
20260507054124 56 319 0.0 0.0 0.00 0.20 0.00 88 1010.7
20260507053129 55 319 0.0 0.0 0.00 0.20 0.00 89 1010.6
20260507052116 54 319 0.0 0.0 0.00 0.20 0.00 90 1010.6
20260507051133 54 319 0.0 0.0 0.00 0.20 0.00 90 1010.4
20260507050135 53 319 0.0 0.9 0.00 0.20 0.00 90 1010.3
20260507043132 52 316 0.0 0.0 0.00 0.20 0.00 90 1010.0
20260507042123 52 316 0.0 0.0 0.00 0.20 0.00 90 1010.0
20260507041144 52 316 0.0 0.0 0.00 0.20 0.00 90 1009.8
20260507040142 52 313 0.0 0.9 0.00 0.20 0.00 90 1009.7
20260507035103 52 315 0.0 0.0 0.00 0.20 0.00 91 1009.5
20260507034143 52 315 0.0 0.0 0.00 0.20 0.00 91 1009.6
20260507033140 52 316 0.0 0.0 0.00 0.20 0.00 91 1009.6
20260507032112 52 317 0.0 0.9 0.00 0.20 0.00 91 1009.6
20260507031137 52 317 0.0 0.9 0.00 0.20 0.00 91 1009.6
20260507030104 52 318 0.0 1.7 0.00 0.20 0.00 91 1009.5
20260507023103 52 349 0.0 0.9 0.00 0.20 0.00 91 1009.5
20260507022136 52 355 0.0 0.0 0.00 0.20 0.00 92 1009.5
20260507021135 53 355 0.0 0.0 0.00 0.20 0.00 92 1009.6
20260507020146 53 355 0.0 0.9 0.00 0.20 0.00 92 1009.7
20260507015142 53 3 0.0 0.0 0.00 0.20 0.00 92 1009.7
20260507014133 53 3 0.0 0.9 0.00 0.20 0.00 92 1009.5
20260507013136 53 3 0.0 0.0 0.00 0.20 0.00 92 1009.5
20260507004137 54 12 0.0 0.0 0.00 0.20 0.00 92 1009.5
20260507002102 55 12 0.0 0.0 0.00 0.20 0.00 91 1009.5
20260507000146 55 12 0.0 0.0 0.00 0.20 0.00 91 1009.5
20260506235137 55 22 0.0 0.0 0.00 0.20 0.00 91 1009.4
20260506234110 55 22 0.0 0.9 0.00 0.20 0.00 91 1009.5
20260506233108 55 22 0.0 0.0 0.00 0.20 0.00 91 1009.5
20260506232145 55 22 0.0 0.0 0.00 0.20 0.00 91 1009.5
20260506230105 56 22 0.0 0.0 0.00 0.20 0.00 91 1009.3
20260506225102 56 22 0.0 0.0 0.00 0.20 0.00 91 1009.4
20260506224104 57 22 0.0 0.0 0.00 0.20 0.00 91 1009.5
20260506223109 57 22 0.0 0.0 0.00 0.20 0.00 90 1009.5
20260506222147 57 22 0.0 0.0 0.00 0.20 0.00 90 1009.5
20260506221102 57 22 0.0 0.0 0.00 0.20 0.00 90 1009.6
20260506220122 57 22 0.0 0.0 0.00 0.20 0.00 90 1009.5
20260506215124 57 22 0.0 0.0 0.00 0.20 0.20 90 1009.4
20260506214137 58 22 0.0 0.0 0.00 0.20 0.20 90 1009.4
20260506213110 57 22 0.0 0.0 0.00 0.20 0.20 89 1009.5
20260506212133 58 22 0.0 0.0 0.00 0.20 0.20 89 1009.5
20260506211119 58 22 0.0 0.0 0.00 0.20 0.20 88 1009.4
20260506210104 59 22 0.0 0.0 0.00 0.20 0.20 88 1009.3
20260506205123 59 22 0.0 0.0 0.00 0.20 0.20 88 1009.3
20260506204102 59 22 0.0 0.0 0.00 0.20 0.20 88 1009.2
20260506203142 60 22 0.0 0.0 0.00 0.20 0.20 88 1009.2
20260506200137 60 23 0.0 0.0 0.00 0.20 0.20 88 1009.0
20260506194101 60 23 0.0 0.0 0.00 0.20 0.20 88 1008.8
20260506192120 60 23 0.0 0.0 0.00 0.20 0.20 88 1008.7
20260506191119 60 18 0.0 0.0 0.00 0.20 0.20 88 1008.6
20260506190108 61 16 0.0 0.0 0.00 0.20 0.20 88 1008.5
20260506183132 61 74 0.0 0.0 0.00 0.20 0.20 88 1008.2
20260506182141 61 74 0.0 0.0 0.00 0.20 0.20 88 1008.1
20260506181113 61 74 0.0 0.9 0.00 0.20 0.20 88 1008.0